Location: Crocus Hill
(18.2167°N, 63.0667°W)
Time: 15:23:36
(UTC+00:00)

Cosmos 1825 Rocket - Pass Details

Date: 26 January 2020
Orbit: 604 x 630 km, 82.5° (Epoch: 27 February)

Event Time Altitude Azimuth Distance (km) Brightness Sun altitude
Exits shadow 09:59:06 - 333° (NNW) 2,303 6.1 -11.6°
Reaches altitude 10° 10:00:03 10° 328° (NNW) 1,962 5.7 -11.4°
Maximum altitude 10:03:47 28° 269° (W) 1,143 4.4 -10.5°
Drops below altitude 10° 10:07:32 10° 209° (SSW) 1,972 6.0 -9.7°
Sets 10:10:00 0° 198° (SSW) 2,880 7.0 -9.1°
